Flag for France Weather past 2 weeks in Paris, France

Now
50 °F

Clear.


Feels Like: 50 °F
Forecast: 46 / 60 °F
Wind: 2 mph from Southwest

Location: Villacoublay

Current Time: Apr 28, 2015 at 10:08:59 PM

Latest Report: Apr 28, 2015 at 9:30 PM


Visibility: N/A

Pressure: 30.15 "Hg

Humidity: 54%

Dew point: 34 °F

Location of ParisLocation

Historic Weather in Paris — Graph

°F

Paris temperature yesterday

Maximum temperature yesterday: 55 °F (at 3:30 PM)
Minimum temperature yesterday: 46 °F (at 8:00 AM)
Average temperature yesterday: 51 °F

Past Weeks' High & Low Weather Summary

 TemperatureHumidityPressure
High79 °F (Apr 15, 5:00 PM)100% (Apr 25, 4:30 AM)30.45 "Hg (Apr 25, 4:30 AM)
Low37 °F (Apr 28, 6:00 AM)20% (Apr 20, 6:00 PM)29.62 "Hg (Apr 26, 7:30 PM)
Average58 °F58%30.05 "Hg
* Reported Apr 13 9:00 PM — Apr 28 9:00 PM, Paris, Weather by CustomWeather, © 2015

Note: Actual official high and low records may vary slightly from our data, if they occured in-between our weather recording intervals... More about our weather records

Advertising

Paris weather history for previous 24 hours

 ConditionsComfort  
Time TempWeatherWind HumidityBarometerVisibility
9:00 PM
Tue, Apr 28
50 °FClear.2 mph54%30.15 "HgN/A
8:30 PM52 °FClear.2 mph50%30.15 "HgN/A
8:00 PM52 °FClear.3 mph50%30.15 "HgN/A
7:30 PM54 °FClear.3 mph44%30.15 "HgN/A
7:00 PM54 °FClear.8 mph44%30.15 "HgN/A
6:30 PM54 °FClear.8 mph44%30.15 "HgN/A
6:00 PM55 °FClear.8 mph41%30.15 "HgN/A
5:30 PM55 °FClear.8 mph44%30.15 "HgN/A
5:00 PM54 °FClear.9 mph44%30.12 "HgN/A
4:30 PM54 °FClear.10 mph47%30.12 "HgN/A
4:00 PM54 °FClear.10 mph44%30.12 "HgN/A
3:30 PM54 °FClear.10 mph47%30.15 "HgN/A
3:00 PM52 °FClear.13 mph50%30.15 "HgN/A
2:30 PM55 °FClear.9 mph44%30.12 "HgN/A
2:00 PM52 °FPartly sunny.12 mph50%30.12 "HgN/A
1:30 PM54 °FClear.10 mph47%30.12 "HgN/A
1:00 PM54 °FPassing clouds.12 mph47%30.12 "HgN/A
12:30 PM50 °FBroken clouds.13 mph54%30.12 "HgN/A
12:00 PM52 °FPassing clouds.14 mph58%30.12 "HgN/A
11:30 AM50 °FBroken clouds.9 mph58%30.12 "HgN/A
11:00 AM52 °FPartly sunny.13 mph62%30.09 "HgN/A
10:30 AM50 °FScattered clouds.10 mph67%30.09 "HgN/A
10:00 AM48 °FPassing clouds.10 mph71%30.09 "HgN/A
9:30 AM48 °FClear.12 mph66%30.07 "HgN/A
9:00 AM45 °FClear.9 mph81%30.07 "HgN/A
8:30 AM43 °FClear.7 mph81%30.07 "HgN/A
8:00 AM41 °FClear.7 mph87%30.04 "HgN/A
7:30 AM39 °FClear.7 mph87%30.04 "HgN/A
7:00 AM39 °FClear.8 mph87%30.01 "HgN/A
6:30 AM37 °FClear.6 mph93%30.01 "HgN/A
6:00 AM37 °FClear.6 mph93%30.01 "HgN/A
5:30 AM39 °FClear.6 mph87%30.01 "HgN/A
5:00 AM39 °FClear.7 mph87%30.01 "HgN/A
4:30 AM39 °FClear.6 mph87%29.98 "HgN/A
4:00 AM41 °FClear.7 mph81%29.98 "HgN/A
3:30 AM41 °FClear.7 mph81%29.98 "HgN/A
3:00 AM43 °FClear.8 mph81%29.98 "HgN/A
2:30 AM43 °FClear.8 mph81%29.98 "HgN/A
2:00 AM45 °FClear.7 mph76%29.95 "HgN/A
1:30 AM45 °FPartly cloudy.9 mph76%29.95 "HgN/A
1:00 AM45 °FMostly cloudy.9 mph76%29.95 "HgN/A
12:30 AM46 °FMostly cloudy.8 mph71%29.95 "HgN/A
12:00 AM46 °FPassing clouds.9 mph66%29.92 "HgN/A
11:30 PM
Mon, Apr 27
46 °FPassing clouds.10 mph66%29.92 "HgN/A
10:30 PM48 °FClear.12 mph62%29.89 "HgN/A
10:00 PM50 °FClear.12 mph58%29.89 "HgN/A
Weather by CustomWeather, © 2015

See weather overviewHow to use our weather pages